Location: Augustenthal
(51.7167°N, 10.2833°E)
Time: 08:36:59
(UTC+00:00)

Cosmos 1733 Rocket - Pass Details

Date: 18 May 2021
Orbit: 603 x 628 km, 82.5° (Epoch: 20 June)

Event Time Altitude Azimuth Distance (km) Brightness Sun altitude
Rises 19:58:11 0° 357° (N) 2,872 7.3 -6.6°
Reaches altitude 10° 20:00:43 10° 11° (N) 1,963 6.1 -6.9°
Maximum altitude 20:04:21 25° 68° (ENE) 1,225 4.4 -7.3°
Drops below altitude 10° 20:07:57 10° 124° (SE) 1,953 5.0 -7.7°
Enters shadow 20:08:06 - 125° (SE) 2,002 5.0 -7.7°
